Year,Month,Day,Hour,Minute,Value (Times are PST for temperature in C)
2015,06,29,00,00,23.60
2015,06,29,00,01,23.60
2015,06,29,00,02,23.60
2015,06,29,00,03,23.60
2015,06,29,00,04,23.50
2015,06,29,00,05,23.50
2015,06,29,00,06,23.50
2015,06,29,00,07,23.50
2015,06,29,00,08,23.50
2015,06,29,00,09,23.40
2015,06,29,00,10,23.40
2015,06,29,00,11,23.40
2015,06,29,00,12,23.40
2015,06,29,00,13,23.40
2015,06,29,00,14,23.40
2015,06,29,00,15,23.30
2015,06,29,00,16,23.30
2015,06,29,00,17,23.30
2015,06,29,00,18,23.30
2015,06,29,00,19,23.30
2015,06,29,00,20,23.30
2015,06,29,00,21,23.30
2015,06,29,00,22,23.30
2015,06,29,00,23,23.30
2015,06,29,00,24,23.30
2015,06,29,00,25,23.20
2015,06,29,00,26,23.20
2015,06,29,00,27,23.20
2015,06,29,00,28,23.20
2015,06,29,00,29,23.20
2015,06,29,00,30,23.10
2015,06,29,00,31,23.10
2015,06,29,00,32,23.10
2015,06,29,00,33,23.10
2015,06,29,00,34,23.10
2015,06,29,00,35,23.10
2015,06,29,00,36,23.00
2015,06,29,00,37,23.00
2015,06,29,00,38,22.90
2015,06,29,00,39,22.90
2015,06,29,00,40,22.90
2015,06,29,00,41,22.90
2015,06,29,00,42,22.80
2015,06,29,00,43,22.80
2015,06,29,00,44,22.70
2015,06,29,00,45,22.70
2015,06,29,00,46,22.60
2015,06,29,00,47,22.50
2015,06,29,00,48,22.50
2015,06,29,00,49,22.50
2015,06,29,00,50,22.40
2015,06,29,00,51,22.40
2015,06,29,00,52,22.30
2015,06,29,00,53,22.30
2015,06,29,00,54,22.30
2015,06,29,00,55,22.20
2015,06,29,00,56,22.20
2015,06,29,00,57,22.20
2015,06,29,00,58,22.10
2015,06,29,00,59,22.10
2015,06,29,01,00,22.00
2015,06,29,01,01,22.00
2015,06,29,01,02,21.90
2015,06,29,01,03,21.90
2015,06,29,01,04,21.80
2015,06,29,01,05,21.80
2015,06,29,01,06,21.70
2015,06,29,01,07,21.70
2015,06,29,01,08,21.60
2015,06,29,01,09,21.60
2015,06,29,01,10,21.60
2015,06,29,01,11,21.50
2015,06,29,01,12,21.50
2015,06,29,01,13,21.40
2015,06,29,01,14,21.40
2015,06,29,01,15,21.40
2015,06,29,01,16,21.40
2015,06,29,01,17,21.30
2015,06,29,01,18,21.30
2015,06,29,01,19,21.30
2015,06,29,01,20,21.20
2015,06,29,01,21,21.20
2015,06,29,01,22,21.20
2015,06,29,01,23,21.20
2015,06,29,01,24,21.20
2015,06,29,01,25,21.10
2015,06,29,01,26,21.10
2015,06,29,01,27,21.10
2015,06,29,01,28,21.00
2015,06,29,01,29,21.00
2015,06,29,01,30,21.00
2015,06,29,01,31,20.90
2015,06,29,01,32,20.90
2015,06,29,01,33,20.90
2015,06,29,01,34,20.90
2015,06,29,01,35,20.90
2015,06,29,01,36,20.80
2015,06,29,01,37,20.80
2015,06,29,01,38,20.80
2015,06,29,01,39,20.80
2015,06,29,01,40,20.80
2015,06,29,01,41,20.70
2015,06,29,01,42,20.70
2015,06,29,01,43,20.70
2015,06,29,01,44,20.70
2015,06,29,01,45,20.70
2015,06,29,01,46,20.60
2015,06,29,01,47,20.60
2015,06,29,01,48,20.60
2015,06,29,01,49,20.60
2015,06,29,01,50,20.50
2015,06,29,01,51,20.50
2015,06,29,01,52,20.50
2015,06,29,01,53,20.50
2015,06,29,01,54,20.50
2015,06,29,01,55,20.50
2015,06,29,01,56,20.50
2015,06,29,01,57,20.50
2015,06,29,01,58,20.50
2015,06,29,01,59,20.50
2015,06,29,02,00,20.50
2015,06,29,02,01,20.50
2015,06,29,02,02,20.50
2015,06,29,02,03,20.50
2015,06,29,02,04,20.50
2015,06,29,02,05,20.50
2015,06,29,02,06,20.50
2015,06,29,02,07,20.50
2015,06,29,02,08,20.50
2015,06,29,02,09,20.50
2015,06,29,02,10,20.50
2015,06,29,02,11,20.50
2015,06,29,02,12,20.50
2015,06,29,02,13,20.50
2015,06,29,02,14,20.50
2015,06,29,02,15,20.50
2015,06,29,02,16,20.50
2015,06,29,02,17,20.50
2015,06,29,02,18,20.50
2015,06,29,02,19,20.50
2015,06,29,02,20,20.40
2015,06,29,02,21,20.40
2015,06,29,02,22,20.30
2015,06,29,02,23,20.30
2015,06,29,02,24,20.30
2015,06,29,02,25,20.30
2015,06,29,02,26,20.30
2015,06,29,02,27,20.20
2015,06,29,02,28,20.20
2015,06,29,02,29,20.20
2015,06,29,02,30,20.20
2015,06,29,02,31,20.20
2015,06,29,02,32,20.20
2015,06,29,02,33,20.20
2015,06,29,02,34,20.30
2015,06,29,02,35,20.30
2015,06,29,02,36,20.30
2015,06,29,02,37,20.30
2015,06,29,02,38,20.30
2015,06,29,02,39,20.30
2015,06,29,02,40,20.30
2015,06,29,02,41,20.30
2015,06,29,02,42,20.30
2015,06,29,02,43,20.30
2015,06,29,02,44,20.30
2015,06,29,02,45,20.30
2015,06,29,02,46,20.30
2015,06,29,02,47,20.30
2015,06,29,02,48,20.30
2015,06,29,02,49,20.20
2015,06,29,02,50,20.20
2015,06,29,02,51,20.20
2015,06,29,02,52,20.20
2015,06,29,02,53,20.20
2015,06,29,02,54,20.20
2015,06,29,02,55,20.20
2015,06,29,02,56,20.20
2015,06,29,02,57,20.20
2015,06,29,02,58,20.10
2015,06,29,02,59,20.10
2015,06,29,03,00,20.10
2015,06,29,03,01,20.10
2015,06,29,03,02,20.10
2015,06,29,03,03,20.10
2015,06,29,03,04,20.10
2015,06,29,03,05,20.20
2015,06,29,03,06,20.20
2015,06,29,03,07,20.20
2015,06,29,03,08,20.20
2015,06,29,03,09,20.20
2015,06,29,03,10,20.20
2015,06,29,03,11,20.20
2015,06,29,03,12,20.20
2015,06,29,03,13,20.20
2015,06,29,03,14,20.20
2015,06,29,03,15,20.10
2015,06,29,03,16,20.10
2015,06,29,03,17,20.10
2015,06,29,03,18,20.10
2015,06,29,03,19,20.10
2015,06,29,03,20,20.10
2015,06,29,03,21,20.00
2015,06,29,03,22,20.00
2015,06,29,03,23,20.00
2015,06,29,03,24,19.90
2015,06,29,03,25,19.90
2015,06,29,03,26,19.90
2015,06,29,03,27,19.90
2015,06,29,03,28,19.90
2015,06,29,03,29,19.90
2015,06,29,03,30,19.80
2015,06,29,03,31,19.80
2015,06,29,03,32,19.80
2015,06,29,03,33,19.80
2015,06,29,03,34,19.80
2015,06,29,03,35,19.80
2015,06,29,03,36,19.80
2015,06,29,03,37,19.80
2015,06,29,03,38,19.80
2015,06,29,03,39,19.70
2015,06,29,03,40,19.70
2015,06,29,03,41,19.70
2015,06,29,03,42,19.70
2015,06,29,03,43,19.70
2015,06,29,03,44,19.70
2015,06,29,03,45,19.70
2015,06,29,03,46,19.70
2015,06,29,03,47,19.70
2015,06,29,03,48,19.80
2015,06,29,03,49,19.80
2015,06,29,03,50,19.80
2015,06,29,03,51,19.80
2015,06,29,03,52,19.80
2015,06,29,03,53,19.90
2015,06,29,03,54,19.90
2015,06,29,03,55,19.90
2015,06,29,03,56,19.90
2015,06,29,03,57,19.90
2015,06,29,03,58,19.90
2015,06,29,03,59,19.90
2015,06,29,04,00,19.90
2015,06,29,04,01,19.90
2015,06,29,04,02,19.90
2015,06,29,04,03,19.90
2015,06,29,04,04,19.90
2015,06,29,04,05,19.90
2015,06,29,04,06,19.90
2015,06,29,04,07,19.80
2015,06,29,04,08,19.80
2015,06,29,04,09,19.80
2015,06,29,04,10,19.80
2015,06,29,04,11,19.80
2015,06,29,04,12,19.80
2015,06,29,04,13,19.70
2015,06,29,04,14,19.70
2015,06,29,04,15,19.70
2015,06,29,04,16,19.60
2015,06,29,04,17,19.60
2015,06,29,04,18,19.60
2015,06,29,04,19,19.60
2015,06,29,04,20,19.60
2015,06,29,04,21,19.60
2015,06,29,04,22,19.50
2015,06,29,04,23,19.50
2015,06,29,04,24,19.50
2015,06,29,04,25,19.50
2015,06,29,04,26,19.50
2015,06,29,04,27,19.50
2015,06,29,04,28,19.50
2015,06,29,04,29,19.50
2015,06,29,04,30,19.50
2015,06,29,04,31,19.50
2015,06,29,04,32,19.40
2015,06,29,04,33,19.40
2015,06,29,04,34,19.40
2015,06,29,04,35,19.40
2015,06,29,04,36,19.40
2015,06,29,04,37,19.40
2015,06,29,04,38,19.40
2015,06,29,04,39,19.40
2015,06,29,04,40,19.40
2015,06,29,04,41,19.40
2015,06,29,04,42,19.40
2015,06,29,04,43,19.40
2015,06,29,04,44,19.40
2015,06,29,04,45,19.40
2015,06,29,04,46,19.40
2015,06,29,04,47,19.40
2015,06,29,04,48,19.40
2015,06,29,04,49,19.40
2015,06,29,04,50,19.40
2015,06,29,04,51,19.40
2015,06,29,04,52,19.40
2015,06,29,04,53,19.40
2015,06,29,04,54,19.40
2015,06,29,04,55,19.40
2015,06,29,04,56,19.40
2015,06,29,04,57,19.30
2015,06,29,04,58,19.30
2015,06,29,04,59,19.30
2015,06,29,05,00,19.30
2015,06,29,05,01,19.30
2015,06,29,05,02,19.30
2015,06,29,05,03,19.30
2015,06,29,05,04,19.30
2015,06,29,05,05,19.30
2015,06,29,05,06,19.30
2015,06,29,05,07,19.30
2015,06,29,05,08,19.30
2015,06,29,05,09,19.20
2015,06,29,05,10,19.20
2015,06,29,05,11,19.20
2015,06,29,05,12,19.20
2015,06,29,05,13,19.20
2015,06,29,05,14,19.20
2015,06,29,05,15,19.20
2015,06,29,05,16,19.20
2015,06,29,05,17,19.20
2015,06,29,05,18,19.20
2015,06,29,05,19,19.20
2015,06,29,05,20,19.20
2015,06,29,05,21,19.20
2015,06,29,05,22,19.20
2015,06,29,05,23,19.20
2015,06,29,05,24,19.20
2015,06,29,05,25,19.20
2015,06,29,05,26,19.20
2015,06,29,05,27,19.20
2015,06,29,05,28,19.20
2015,06,29,05,29,19.20
2015,06,29,05,30,19.20
2015,06,29,05,31,19.20
2015,06,29,05,32,19.20
2015,06,29,05,33,19.30
2015,06,29,05,34,19.30
2015,06,29,05,35,19.30
2015,06,29,05,36,19.30
2015,06,29,05,37,19.30
2015,06,29,05,38,19.30
2015,06,29,05,39,19.30
2015,06,29,05,40,19.30
2015,06,29,05,41,19.30
2015,06,29,05,42,19.30
2015,06,29,05,43,19.30
2015,06,29,05,44,19.30
2015,06,29,05,45,19.30
2015,06,29,05,46,19.40
2015,06,29,05,47,19.40
2015,06,29,05,48,19.40
2015,06,29,05,49,19.40
2015,06,29,05,50,19.50
2015,06,29,05,51,19.50
2015,06,29,05,52,19.60
2015,06,29,05,53,19.60
2015,06,29,05,54,19.60
2015,06,29,05,55,19.60
2015,06,29,05,56,19.60
2015,06,29,05,57,19.70
2015,06,29,05,58,19.70
2015,06,29,05,59,19.70
2015,06,29,06,00,19.70
2015,06,29,06,01,19.70
2015,06,29,06,02,19.70
2015,06,29,06,03,19.70
2015,06,29,06,04,19.70
2015,06,29,06,05,19.70
2015,06,29,06,06,19.70
2015,06,29,06,07,19.70
2015,06,29,06,08,19.70
2015,06,29,06,09,19.70
2015,06,29,06,10,19.70
2015,06,29,06,11,19.70
2015,06,29,06,12,19.70
2015,06,29,06,13,19.70
2015,06,29,06,14,19.70
2015,06,29,06,15,19.70
2015,06,29,06,16,19.70
2015,06,29,06,17,19.70
2015,06,29,06,18,19.70
2015,06,29,06,19,19.70
2015,06,29,06,20,19.70
2015,06,29,06,21,19.70
2015,06,29,06,22,19.70
2015,06,29,06,23,19.70
2015,06,29,06,24,19.70
2015,06,29,06,25,19.70
2015,06,29,06,26,19.60
2015,06,29,06,27,19.60
2015,06,29,06,28,19.50
2015,06,29,06,29,19.40
2015,06,29,06,30,19.40
2015,06,29,06,31,19.30
2015,06,29,06,32,19.30
2015,06,29,06,33,19.30
2015,06,29,06,34,19.30
2015,06,29,06,35,19.20
2015,06,29,06,36,19.20
2015,06,29,06,37,19.10
2015,06,29,06,38,19.10
2015,06,29,06,39,19.10
2015,06,29,06,40,19.00
2015,06,29,06,41,19.00
2015,06,29,06,42,19.00
2015,06,29,06,43,18.90
2015,06,29,06,44,18.90
2015,06,29,06,45,18.90
2015,06,29,06,46,18.90
2015,06,29,06,47,18.90
2015,06,29,06,48,18.90
2015,06,29,06,49,19.00
2015,06,29,06,50,19.00
2015,06,29,06,51,19.10
2015,06,29,06,52,19.10
2015,06,29,06,53,19.10
2015,06,29,06,54,19.20
2015,06,29,06,55,19.20
2015,06,29,06,56,19.30
2015,06,29,06,57,19.30
2015,06,29,06,58,19.40
2015,06,29,06,59,19.50
2015,06,29,07,00,19.60
2015,06,29,07,01,19.70
2015,06,29,07,02,19.80
2015,06,29,07,03,19.90
2015,06,29,07,04,19.90
2015,06,29,07,05,20.00
2015,06,29,07,06,20.10
2015,06,29,07,07,20.10
2015,06,29,07,08,20.20
2015,06,29,07,09,20.20
2015,06,29,07,10,20.30
2015,06,29,07,11,20.30
2015,06,29,07,12,20.30
2015,06,29,07,13,20.30
2015,06,29,07,14,20.30
2015,06,29,07,15,20.30
2015,06,29,07,16,20.30
2015,06,29,07,17,20.30
2015,06,29,07,18,20.40
2015,06,29,07,19,20.40
2015,06,29,07,20,20.50
2015,06,29,07,21,20.50
2015,06,29,07,22,20.60
2015,06,29,07,23,20.60
2015,06,29,07,24,20.70
2015,06,29,07,25,20.70
2015,06,29,07,26,20.70
2015,06,29,07,27,20.80
2015,06,29,07,28,20.80
2015,06,29,07,29,20.80
2015,06,29,07,30,20.80
2015,06,29,07,31,20.80
2015,06,29,07,32,20.90
2015,06,29,07,33,20.90
2015,06,29,07,34,20.90
2015,06,29,07,35,20.90
2015,06,29,07,36,20.90
2015,06,29,07,37,20.90
2015,06,29,07,38,20.90
2015,06,29,07,39,20.90
2015,06,29,07,40,21.00
2015,06,29,07,41,21.00
2015,06,29,07,42,21.00
2015,06,29,07,43,21.00
2015,06,29,07,44,21.00
2015,06,29,07,45,21.00
2015,06,29,07,46,21.00
2015,06,29,07,47,21.10
2015,06,29,07,48,21.10
2015,06,29,07,49,21.10
2015,06,29,07,50,21.10
2015,06,29,07,51,21.10
2015,06,29,07,52,21.10
2015,06,29,07,53,21.00
2015,06,29,07,54,21.00
2015,06,29,07,55,21.00
2015,06,29,07,56,21.00
2015,06,29,07,57,21.10
2015,06,29,07,58,21.10
2015,06,29,07,59,21.10
2015,06,29,08,00,21.10
2015,06,29,08,01,21.10
2015,06,29,08,02,21.20
2015,06,29,08,03,21.20
2015,06,29,08,04,21.20
2015,06,29,08,05,21.30
2015,06,29,08,06,21.30
2015,06,29,08,07,21.30
2015,06,29,08,08,21.30
2015,06,29,08,09,21.40
2015,06,29,08,10,21.40
2015,06,29,08,11,21.40
2015,06,29,08,12,21.40
2015,06,29,08,13,21.40
2015,06,29,08,14,21.40
2015,06,29,08,15,21.40
2015,06,29,08,16,21.50
2015,06,29,08,17,21.50
2015,06,29,08,18,21.50
2015,06,29,08,19,21.50
2015,06,29,08,20,21.50
2015,06,29,08,21,21.50
2015,06,29,08,22,21.50
2015,06,29,08,23,21.50
2015,06,29,08,24,21.50
2015,06,29,08,25,21.50
2015,06,29,08,26,21.50
2015,06,29,08,27,21.50
2015,06,29,08,28,21.60
2015,06,29,08,29,21.60
2015,06,29,08,30,21.60
2015,06,29,08,31,21.70
2015,06,29,08,32,21.70
2015,06,29,08,33,21.80
2015,06,29,08,34,21.80
2015,06,29,08,35,21.90
2015,06,29,08,36,21.90
2015,06,29,08,37,22.00
2015,06,29,08,38,22.00
2015,06,29,08,39,22.10
2015,06,29,08,40,22.10
2015,06,29,08,41,22.20
2015,06,29,08,42,22.20
2015,06,29,08,43,22.30
2015,06,29,08,44,22.30
2015,06,29,08,45,22.30
2015,06,29,08,46,22.40
2015,06,29,08,47,22.50
2015,06,29,08,48,22.60
2015,06,29,08,49,22.60
2015,06,29,08,50,22.70
2015,06,29,08,51,22.90
2015,06,29,08,52,23.00
2015,06,29,08,53,23.20
2015,06,29,08,54,23.30
2015,06,29,08,55,23.40
2015,06,29,08,56,23.50
2015,06,29,08,57,23.60
2015,06,29,08,58,23.70
2015,06,29,08,59,23.70
2015,06,29,09,00,23.80
2015,06,29,09,01,23.80
2015,06,29,09,02,24.00
2015,06,29,09,03,24.10
2015,06,29,09,04,24.20
2015,06,29,09,05,24.30
2015,06,29,09,06,24.40
2015,06,29,09,07,24.60
2015,06,29,09,08,24.60
2015,06,29,09,09,24.70
2015,06,29,09,10,24.60
2015,06,29,09,11,24.60
2015,06,29,09,12,24.70
2015,06,29,09,13,24.80
2015,06,29,09,14,24.90
2015,06,29,09,15,25.00
2015,06,29,09,16,25.10
2015,06,29,09,17,25.10
2015,06,29,09,18,25.00
2015,06,29,09,19,24.90
2015,06,29,09,20,24.80
2015,06,29,09,21,24.80
2015,06,29,09,22,24.70
2015,06,29,09,23,24.70
2015,06,29,09,24,24.70
2015,06,29,09,25,24.70
2015,06,29,09,26,24.70
2015,06,29,09,27,24.70
2015,06,29,09,28,24.60
2015,06,29,09,29,24.60
2015,06,29,09,30,24.50
2015,06,29,09,31,24.40
2015,06,29,09,32,24.30
2015,06,29,09,33,24.30
2015,06,29,09,34,24.20
2015,06,29,09,35,24.00
2015,06,29,09,36,24.00
2015,06,29,09,37,23.80
2015,06,29,09,38,23.70
2015,06,29,09,39,23.60
2015,06,29,09,40,23.50
2015,06,29,09,41,23.50
2015,06,29,09,42,23.50
2015,06,29,09,43,23.60
2015,06,29,09,44,23.60
2015,06,29,09,45,23.60
2015,06,29,09,46,23.70
2015,06,29,09,47,23.70
2015,06,29,09,48,23.60
2015,06,29,09,49,23.50
2015,06,29,09,50,23.50
2015,06,29,09,51,23.60
2015,06,29,09,52,23.70
2015,06,29,09,53,23.70
2015,06,29,09,54,23.70
2015,06,29,09,55,23.70
2015,06,29,09,56,23.70
2015,06,29,09,57,23.60
2015,06,29,09,58,23.60
2015,06,29,09,59,23.70
2015,06,29,10,00,23.80
2015,06,29,10,01,23.80
2015,06,29,10,02,23.80
2015,06,29,10,03,23.80
2015,06,29,10,04,23.90
2015,06,29,10,05,24.00
2015,06,29,10,06,24.10
2015,06,29,10,07,24.10
2015,06,29,10,08,24.10
2015,06,29,10,09,24.10
2015,06,29,10,10,24.10
2015,06,29,10,11,24.20
2015,06,29,10,12,24.30
2015,06,29,10,13,24.40
2015,06,29,10,14,24.50
2015,06,29,10,15,24.60
2015,06,29,10,16,24.70
2015,06,29,10,17,24.70
2015,06,29,10,18,24.80
2015,06,29,10,19,24.90
2015,06,29,10,20,24.90
2015,06,29,10,21,25.00
2015,06,29,10,22,25.00
2015,06,29,10,23,25.10
2015,06,29,10,24,25.20
2015,06,29,10,25,25.40
2015,06,29,10,26,25.50
2015,06,29,10,27,25.70
2015,06,29,10,28,25.80
2015,06,29,10,29,25.80
2015,06,29,10,30,25.80
2015,06,29,10,31,25.90
2015,06,29,10,32,25.90
2015,06,29,10,33,26.00
2015,06,29,10,34,25.90
2015,06,29,10,35,25.90
2015,06,29,10,36,25.90
2015,06,29,10,37,25.90
2015,06,29,10,38,26.00
2015,06,29,10,39,25.90
2015,06,29,10,40,25.80
2015,06,29,10,41,25.80
2015,06,29,10,42,25.80
2015,06,29,10,43,25.90
2015,06,29,10,44,26.00
2015,06,29,10,45,26.10
2015,06,29,10,46,26.20
2015,06,29,10,47,26.40
2015,06,29,10,48,26.40
2015,06,29,10,49,26.50
2015,06,29,10,50,26.50
2015,06,29,10,51,26.30
2015,06,29,10,52,26.20
2015,06,29,10,53,26.10
2015,06,29,10,54,26.20
2015,06,29,10,55,26.30
2015,06,29,10,56,26.40
2015,06,29,10,57,26.40
2015,06,29,10,58,26.50
2015,06,29,10,59,26.60
2015,06,29,11,00,26.60
2015,06,29,11,01,26.70
2015,06,29,11,02,26.70
2015,06,29,11,03,26.70
2015,06,29,11,04,26.60
2015,06,29,11,05,26.60
2015,06,29,11,06,26.60
2015,06,29,11,07,26.40
2015,06,29,11,08,26.30
2015,06,29,11,09,26.30
2015,06,29,11,10,26.10
2015,06,29,11,11,26.00
2015,06,29,11,12,25.90
2015,06,29,11,13,25.80
2015,06,29,11,14,25.70
2015,06,29,11,15,25.70
2015,06,29,11,16,25.80
2015,06,29,11,17,25.90
2015,06,29,11,18,25.90
2015,06,29,11,19,26.00
2015,06,29,11,20,26.00
2015,06,29,11,21,26.00
2015,06,29,11,22,26.10
2015,06,29,11,23,26.20
2015,06,29,11,24,26.40
2015,06,29,11,25,26.60
2015,06,29,11,26,26.70
2015,06,29,11,27,26.70
2015,06,29,11,28,26.50
2015,06,29,11,29,26.40
2015,06,29,11,30,26.30
2015,06,29,11,31,26.20
2015,06,29,11,32,26.20
2015,06,29,11,33,26.20
2015,06,29,11,34,26.20
2015,06,29,11,35,26.20
2015,06,29,11,36,26.30
2015,06,29,11,37,26.30
2015,06,29,11,38,26.40
2015,06,29,11,39,26.40
2015,06,29,11,40,26.50
2015,06,29,11,41,26.40
2015,06,29,11,42,26.30
2015,06,29,11,43,26.20
2015,06,29,11,44,26.20
2015,06,29,11,45,26.20
2015,06,29,11,46,26.20
2015,06,29,11,47,26.20
2015,06,29,11,48,26.20
2015,06,29,11,49,26.40
2015,06,29,11,50,26.40
2015,06,29,11,51,26.40
2015,06,29,11,52,26.30
2015,06,29,11,53,26.30
2015,06,29,11,54,26.10
2015,06,29,11,55,26.00
2015,06,29,11,56,26.00
2015,06,29,11,57,26.00
2015,06,29,11,58,26.10
2015,06,29,11,59,26.10
2015,06,29,12,00,26.10
2015,06,29,12,01,26.20
2015,06,29,12,02,26.20
2015,06,29,12,03,26.00
2015,06,29,12,04,26.00
2015,06,29,12,05,25.90
2015,06,29,12,06,26.00
2015,06,29,12,07,25.90
2015,06,29,12,08,25.90
2015,06,29,12,09,25.90
2015,06,29,12,10,25.80
2015,06,29,12,11,25.80
2015,06,29,12,12,25.70
2015,06,29,12,13,25.60
2015,06,29,12,14,25.60
2015,06,29,12,15,25.60
2015,06,29,12,16,25.70
2015,06,29,12,17,25.70
2015,06,29,12,18,25.70
2015,06,29,12,19,25.60
2015,06,29,12,20,25.60
2015,06,29,12,21,25.60
2015,06,29,12,22,25.70
2015,06,29,12,23,25.70
2015,06,29,12,24,25.70
2015,06,29,12,25,25.70
2015,06,29,12,26,25.60
2015,06,29,12,27,25.50
2015,06,29,12,28,25.40
2015,06,29,12,29,25.50
2015,06,29,12,30,25.60
2015,06,29,12,31,25.70
2015,06,29,12,32,25.70
2015,06,29,12,33,25.70
2015,06,29,12,34,25.60
2015,06,29,12,35,25.60
2015,06,29,12,36,25.70
2015,06,29,12,37,25.80
2015,06,29,12,38,25.70
2015,06,29,12,39,25.80
2015,06,29,12,40,25.80
2015,06,29,12,41,25.90
2015,06,29,12,42,26.00
2015,06,29,12,43,26.00
2015,06,29,12,44,26.00
2015,06,29,12,45,26.10
2015,06,29,12,46,26.10
2015,06,29,12,47,26.10
2015,06,29,12,48,26.10
2015,06,29,12,49,26.20
2015,06,29,12,50,26.30
2015,06,29,12,51,26.30
2015,06,29,12,52,26.30
2015,06,29,12,53,26.30
2015,06,29,12,54,26.20
2015,06,29,12,55,26.20
2015,06,29,12,56,26.30
2015,06,29,12,57,26.40
2015,06,29,12,58,26.40
2015,06,29,12,59,26.40
2015,06,29,13,00,26.40
2015,06,29,13,01,26.50
2015,06,29,13,02,26.50
2015,06,29,13,03,26.60
2015,06,29,13,04,26.50
2015,06,29,13,05,26.50
2015,06,29,13,06,26.50
2015,06,29,13,07,26.60
2015,06,29,13,08,26.70
2015,06,29,13,09,26.80
2015,06,29,13,10,26.90
2015,06,29,13,11,26.80
2015,06,29,13,12,26.60
2015,06,29,13,13,26.50
2015,06,29,13,14,26.40
2015,06,29,13,15,26.30
2015,06,29,13,16,26.30
2015,06,29,13,17,26.30
2015,06,29,13,18,26.30
2015,06,29,13,19,26.30
2015,06,29,13,20,26.30
2015,06,29,13,21,26.30
2015,06,29,13,22,26.20
2015,06,29,13,23,26.10
2015,06,29,13,24,26.00
2015,06,29,13,25,26.00
2015,06,29,13,26,26.00
2015,06,29,13,27,26.00
2015,06,29,13,28,26.10
2015,06,29,13,29,26.20
2015,06,29,13,30,26.20
2015,06,29,13,31,26.10
2015,06,29,13,32,26.00
2015,06,29,13,33,25.90
2015,06,29,13,34,25.90
2015,06,29,13,35,25.90
2015,06,29,13,36,25.90
2015,06,29,13,37,25.90
2015,06,29,13,38,26.00
2015,06,29,13,39,25.90
2015,06,29,13,40,25.90
2015,06,29,13,41,25.90
2015,06,29,13,42,25.80
2015,06,29,13,43,25.80
2015,06,29,13,44,25.90
2015,06,29,13,45,26.00
2015,06,29,13,46,26.00
2015,06,29,13,47,26.00
2015,06,29,13,48,25.90
2015,06,29,13,49,25.90
2015,06,29,13,50,25.80
2015,06,29,13,51,25.90
2015,06,29,13,52,25.90
2015,06,29,13,53,26.00
2015,06,29,13,54,26.10
2015,06,29,13,55,26.10
2015,06,29,13,56,26.10
2015,06,29,13,57,26.20
2015,06,29,13,58,26.20
2015,06,29,13,59,26.10
2015,06,29,14,00,26.10
2015,06,29,14,01,26.00
2015,06,29,14,02,25.90
2015,06,29,14,03,25.80
2015,06,29,14,04,25.70
2015,06,29,14,05,25.70
2015,06,29,14,06,25.80
2015,06,29,14,07,25.90
2015,06,29,14,08,25.90
2015,06,29,14,09,26.00
2015,06,29,14,10,26.10
2015,06,29,14,11,26.10
2015,06,29,14,12,26.00
2015,06,29,14,13,26.00
2015,06,29,14,14,25.80
2015,06,29,14,15,25.60
2015,06,29,14,16,25.60
2015,06,29,14,17,25.50
2015,06,29,14,18,25.50
2015,06,29,14,19,25.50
2015,06,29,14,20,25.60
2015,06,29,14,21,25.50
2015,06,29,14,22,25.50
2015,06,29,14,23,25.60
2015,06,29,14,24,25.70
2015,06,29,14,25,25.70
2015,06,29,14,26,25.70
2015,06,29,14,27,25.80
2015,06,29,14,28,25.80
2015,06,29,14,29,25.90
2015,06,29,14,30,26.00
2015,06,29,14,31,26.10
2015,06,29,14,32,26.10
2015,06,29,14,33,26.00
2015,06,29,14,34,26.00
2015,06,29,14,35,26.10
2015,06,29,14,36,26.20
2015,06,29,14,37,26.30
2015,06,29,14,38,26.40
2015,06,29,14,39,26.40
2015,06,29,14,40,26.40
2015,06,29,14,41,26.50
2015,06,29,14,42,26.50
2015,06,29,14,43,26.60
2015,06,29,14,44,26.60
2015,06,29,14,45,26.50
2015,06,29,14,46,26.50
2015,06,29,14,47,26.40
2015,06,29,14,48,26.30
2015,06,29,14,49,26.30
2015,06,29,14,50,26.30
2015,06,29,14,51,26.30
2015,06,29,14,52,26.30
2015,06,29,14,53,26.10
2015,06,29,14,54,26.00
2015,06,29,14,55,25.80
2015,06,29,14,56,25.70
2015,06,29,14,57,25.80
2015,06,29,14,58,25.90
2015,06,29,14,59,25.90
2015,06,29,15,00,26.00
2015,06,29,15,01,26.10
2015,06,29,15,02,26.00
2015,06,29,15,03,25.90
2015,06,29,15,04,25.90
2015,06,29,15,05,25.90
2015,06,29,15,06,25.70
2015,06,29,15,07,25.60
2015,06,29,15,08,25.50
2015,06,29,15,09,25.40
2015,06,29,15,10,25.10
2015,06,29,15,11,24.90
2015,06,29,15,12,25.00
2015,06,29,15,13,24.90
2015,06,29,15,14,25.00
2015,06,29,15,15,25.00
2015,06,29,15,16,24.90
2015,06,29,15,17,24.70
2015,06,29,15,18,24.50
2015,06,29,15,19,24.40
2015,06,29,15,20,24.30
2015,06,29,15,21,24.40
2015,06,29,15,22,24.40
2015,06,29,15,23,24.30
2015,06,29,15,24,24.20
2015,06,29,15,25,24.10
2015,06,29,15,26,24.00
2015,06,29,15,27,24.00
2015,06,29,15,28,24.00
2015,06,29,15,29,24.00
2015,06,29,15,30,24.10
2015,06,29,15,31,24.10
2015,06,29,15,32,24.10
2015,06,29,15,33,24.10
2015,06,29,15,34,24.10
2015,06,29,15,35,24.30
2015,06,29,15,36,24.40
2015,06,29,15,37,24.50
2015,06,29,15,38,24.50
2015,06,29,15,39,24.70
2015,06,29,15,40,24.90
2015,06,29,15,41,24.90
2015,06,29,15,42,24.90
2015,06,29,15,43,24.80
2015,06,29,15,44,24.70
2015,06,29,15,45,24.50
2015,06,29,15,46,24.40
2015,06,29,15,47,24.30
2015,06,29,15,48,24.30
2015,06,29,15,49,24.30
2015,06,29,15,50,24.30
2015,06,29,15,51,24.30
2015,06,29,15,52,24.30
2015,06,29,15,53,24.30
2015,06,29,15,54,24.50
2015,06,29,15,55,24.60
2015,06,29,15,56,24.70
2015,06,29,15,57,24.70
2015,06,29,15,58,24.70
2015,06,29,15,59,24.70
2015,06,29,16,00,24.60
2015,06,29,16,01,24.60
2015,06,29,16,02,24.60
2015,06,29,16,03,24.60
2015,06,29,16,04,24.70
2015,06,29,16,05,24.80
2015,06,29,16,06,24.80
2015,06,29,16,07,24.80
2015,06,29,16,08,24.80
2015,06,29,16,09,24.80
2015,06,29,16,10,24.90
2015,06,29,16,11,25.00
2015,06,29,16,12,25.10
2015,06,29,16,13,25.20
2015,06,29,16,14,25.20
2015,06,29,16,15,25.10
2015,06,29,16,16,25.20
2015,06,29,16,17,25.20
2015,06,29,16,18,25.30
2015,06,29,16,19,25.20
2015,06,29,16,20,25.10
2015,06,29,16,21,25.10
2015,06,29,16,22,25.00
2015,06,29,16,23,25.00
2015,06,29,16,24,24.90
2015,06,29,16,25,25.00
2015,06,29,16,26,25.20
2015,06,29,16,27,25.30
2015,06,29,16,28,25.30
2015,06,29,16,29,25.30
2015,06,29,16,30,25.30
2015,06,29,16,31,25.10
2015,06,29,16,32,25.00
2015,06,29,16,33,24.90
2015,06,29,16,34,24.90
2015,06,29,16,35,25.00
2015,06,29,16,36,25.10
2015,06,29,16,37,25.10
2015,06,29,16,38,25.20
2015,06,29,16,39,25.20
2015,06,29,16,40,25.20
2015,06,29,16,41,25.10
2015,06,29,16,42,25.20
2015,06,29,16,43,25.30
2015,06,29,16,44,25.30
2015,06,29,16,45,25.40
2015,06,29,16,46,25.50
2015,06,29,16,47,25.60
2015,06,29,16,48,25.70
2015,06,29,16,49,25.80
2015,06,29,16,50,25.90
2015,06,29,16,51,25.90
2015,06,29,16,52,25.80
2015,06,29,16,53,25.80
2015,06,29,16,54,25.70
2015,06,29,16,55,25.60
2015,06,29,16,56,25.60
2015,06,29,16,57,25.60
2015,06,29,16,58,25.60
2015,06,29,16,59,25.60
2015,06,29,17,00,25.60
2015,06,29,17,01,25.70
2015,06,29,17,02,25.80
2015,06,29,17,03,25.90
2015,06,29,17,04,25.80
2015,06,29,17,05,25.70
2015,06,29,17,06,25.60
2015,06,29,17,07,25.60
2015,06,29,17,08,25.60
2015,06,29,17,09,25.60
2015,06,29,17,10,25.60
2015,06,29,17,11,25.60
2015,06,29,17,12,25.80
2015,06,29,17,13,25.80
2015,06,29,17,14,25.70
2015,06,29,17,15,25.70
2015,06,29,17,16,25.60
2015,06,29,17,17,25.60
2015,06,29,17,18,25.70
2015,06,29,17,19,25.80